TimeEDT,TemperatureF,Dew PointF,Humidity,Sea Level PressureIn,VisibilityMPH,Wind Direction,Wind SpeedMPH,Gust SpeedMPH,PrecipitationIn,Events,Conditions,WindDirDegrees,DateUTC
12:15 AM,46.4,35.6,66,30.10,10.0,Calm,Calm,-,N/A,,Clear,0,2014-04-01 04:15:00
12:35 AM,46.4,35.6,66,30.10,10.0,Calm,Calm,-,N/A,,Clear,0,2014-04-01 04:35:00
12:55 AM,46.4,33.8,62,30.10,10.0,Calm,Calm,-,N/A,,Clear,0,2014-04-01 04:55:00
1:15 AM,46.4,35.6,66,30.11,10.0,Calm,Calm,-,N/A,,Clear,0,2014-04-01 05:15:00
1:35 AM,46.4,35.6,66,30.11,10.0,Calm,Calm,-,N/A,,Clear,0,2014-04-01 05:35:00
2:15 AM,44.6,33.8,66,30.11,10.0,Calm,Calm,-,N/A,,Clear,0,2014-04-01 06:15:00
2:35 AM,44.6,35.6,71,30.11,10.0,NE,4.6,-,N/A,,Clear,50,2014-04-01 06:35:00
2:55 AM,42.8,35.6,76,30.11,10.0,Calm,Calm,-,N/A,,Clear,0,2014-04-01 06:55:00
3:15 AM,41.0,35.6,81,30.11,10.0,Calm,Calm,-,N/A,,Clear,0,2014-04-01 07:15:00
3:35 AM,42.8,35.6,76,30.10,10.0,Calm,Calm,-,N/A,,Clear,0,2014-04-01 07:35:00
3:55 AM,42.8,35.6,76,30.10,10.0,Calm,Calm,-,N/A,,Clear,0,2014-04-01 07:55:00
4:15 AM,41.0,35.6,81,30.10,10.0,Calm,Calm,-,N/A,,Clear,0,2014-04-01 08:15:00
4:35 AM,41.0,33.8,76,30.10,10.0,Calm,Calm,-,N/A,,Clear,0,2014-04-01 08:35:00
4:55 AM,41.0,33.8,76,30.11,10.0,Calm,Calm,-,N/A,,Clear,0,2014-04-01 08:55:00
5:15 AM,39.2,33.8,81,30.11,10.0,Calm,Calm,-,N/A,,Clear,0,2014-04-01 09:15:00
5:35 AM,39.2,33.8,81,30.11,10.0,Calm,Calm,-,N/A,,Clear,0,2014-04-01 09:35:00
5:55 AM,37.4,33.8,87,30.12,10.0,Calm,Calm,-,N/A,,Clear,0,2014-04-01 09:55:00
6:15 AM,39.2,33.8,81,30.12,10.0,Calm,Calm,-,N/A,,Clear,0,2014-04-01 10:15:00
6:35 AM,37.4,33.8,87,30.12,10.0,Calm,Calm,-,N/A,,Clear,0,2014-04-01 10:35:00
6:55 AM,39.2,33.8,81,30.12,10.0,Calm,Calm,-,N/A,,Clear,0,2014-04-01 10:55:00
7:15 AM,37.4,35.6,93,30.13,10.0,Calm,Calm,-,N/A,,Clear,0,2014-04-01 11:15:00
7:35 AM,39.2,35.6,87,30.14,10.0,Calm,Calm,-,N/A,,Clear,0,2014-04-01 11:35:00
7:55 AM,42.8,37.4,81,30.15,10.0,Calm,Calm,-,N/A,,Clear,0,2014-04-01 11:55:00
8:15 AM,50.0,41.0,71,30.14,10.0,Calm,Calm,-,N/A,,Clear,0,2014-04-01 12:15:00
8:35 AM,51.8,42.8,71,30.15,10.0,Calm,Calm,-,N/A,,Clear,0,2014-04-01 12:35:00
8:55 AM,55.4,41.0,58,30.16,10.0,Calm,Calm,-,N/A,,Clear,0,2014-04-01 12:55:00
9:15 AM,55.4,42.8,63,30.17,10.0,Calm,Calm,-,N/A,,Clear,0,2014-04-01 13:15:00
9:35 AM,59.0,42.8,55,30.16,10.0,Calm,Calm,-,N/A,,Clear,0,2014-04-01 13:35:00
9:55 AM,60.8,37.4,42,30.16,10.0,ESE,3.5,-,N/A,,Clear,120,2014-04-01 13:55:00
10:15 AM,62.6,37.4,39,30.17,10.0,Calm,Calm,-,N/A,,Clear,0,2014-04-01 14:15:00
10:35 AM,64.4,37.4,37,30.17,10.0,Calm,Calm,-,N/A,,Clear,0,2014-04-01 14:35:00
10:55 AM,64.4,39.2,40,30.16,10.0,ESE,3.5,-,N/A,,Clear,120,2014-04-01 14:55:00
11:15 AM,68.0,37.4,33,30.15,10.0,East,3.5,-,N/A,,Clear,100,2014-04-01 15:15:00
11:35 AM,68.0,37.4,33,30.15,10.0,East,3.5,-,N/A,,Clear,100,2014-04-01 15:35:00
11:55 AM,69.8,39.2,33,30.14,10.0,Calm,Calm,-,N/A,,Clear,0,2014-04-01 15:55:00
12:15 PM,69.8,32.0,25,30.14,10.0,Calm,Calm,-,N/A,,Clear,0,2014-04-01 16:15:00
12:35 PM,71.6,32.0,23,30.12,10.0,SE,3.5,-,N/A,,Clear,130,2014-04-01 16:35:00
12:55 PM,73.4,32.0,22,30.11,10.0,South,5.8,-,N/A,,Clear,180,2014-04-01 16:55:00
1:15 PM,75.2,32.0,21,30.09,10.0,South,6.9,-,N/A,,Clear,170,2014-04-01 17:15:00
1:35 PM,77.0,32.0,19,30.08,10.0,South,4.6,-,N/A,,Clear,190,2014-04-01 17:35:00
1:55 PM,77.0,30.2,18,30.08,10.0,South,4.6,-,N/A,,Clear,180,2014-04-01 17:55:00
2:15 PM,78.8,30.2,17,30.07,10.0,South,6.9,-,N/A,,Clear,170,2014-04-01 18:15:00
2:35 PM,78.8,30.2,17,30.06,10.0,SW,5.8,-,N/A,,Clear,220,2014-04-01 18:35:00
2:55 PM,78.8,28.4,16,30.05,10.0,South,4.6,-,N/A,,Clear,180,2014-04-01 18:55:00
3:15 PM,78.8,26.6,15,30.05,10.0,South,5.8,-,N/A,,Clear,180,2014-04-01 19:15:00
3:35 PM,80.6,28.4,15,30.04,10.0,South,9.2,-,N/A,,Clear,180,2014-04-01 19:35:00
3:55 PM,80.6,26.6,14,30.03,10.0,South,5.8,-,N/A,,Clear,180,2014-04-01 19:55:00
4:15 PM,80.6,26.6,14,30.02,10.0,South,6.9,-,N/A,,Clear,190,2014-04-01 20:15:00
4:35 PM,80.6,26.6,14,30.02,10.0,SSW,6.9,-,N/A,,Clear,200,2014-04-01 20:35:00
4:55 PM,82.4,26.6,13,30.01,10.0,SSW,5.8,-,N/A,,Clear,200,2014-04-01 20:55:00
5:15 PM,82.4,23.0,11,30.01,10.0,WSW,5.8,-,N/A,,Clear,250,2014-04-01 21:15:00
5:35 PM,82.4,23.0,11,30.01,10.0,West,3.5,-,N/A,,Clear,260,2014-04-01 21:35:00
5:55 PM,82.4,26.6,13,30.01,10.0,WSW,3.5,-,N/A,,Clear,250,2014-04-01 21:55:00
6:15 PM,80.6,26.6,14,30.01,10.0,WSW,3.5,-,N/A,,Clear,240,2014-04-01 22:15:00
6:35 PM,80.6,28.4,15,30.01,10.0,Calm,Calm,-,N/A,,Clear,0,2014-04-01 22:35:00
6:55 PM,77.0,35.6,22,30.01,10.0,South,3.5,-,N/A,,Clear,170,2014-04-01 22:55:00
7:15 PM,73.4,35.6,25,30.02,10.0,Calm,Calm,-,N/A,,Clear,0,2014-04-01 23:15:00
7:35 PM,69.8,37.4,31,30.02,10.0,Calm,Calm,-,N/A,,Clear,0,2014-04-01 23:35:00
7:55 PM,68.0,37.4,33,30.03,10.0,Calm,Calm,-,N/A,,Clear,0,2014-04-01 23:55:00
8:15 PM,68.0,37.4,33,30.03,10.0,South,3.5,-,N/A,,Clear,170,2014-04-02 00:15:00
8:35 PM,64.4,37.4,37,30.04,10.0,Calm,Calm,-,N/A,,Clear,0,2014-04-02 00:35:00
8:55 PM,64.4,37.4,37,30.04,10.0,South,3.5,-,N/A,,Clear,190,2014-04-02 00:55:00
9:15 PM,64.4,37.4,37,30.04,10.0,Calm,Calm,-,N/A,,Clear,0,2014-04-02 01:15:00
9:35 PM,62.6,37.4,39,30.04,10.0,South,3.5,-,N/A,,Clear,190,2014-04-02 01:35:00
9:55 PM,64.4,35.6,34,30.05,10.0,SSW,3.5,-,N/A,,Clear,200,2014-04-02 01:55:00
10:15 PM,64.4,35.6,34,30.05,10.0,SSW,3.5,-,N/A,,Clear,200,2014-04-02 02:15:00
10:35 PM,68.0,33.8,28,30.05,10.0,SSW,3.5,-,N/A,,Clear,200,2014-04-02 02:35:00
10:55 PM,64.4,35.6,34,30.05,10.0,SSW,4.6,-,N/A,,Clear,200,2014-04-02 02:55:00
11:15 PM,64.4,35.6,34,30.05,10.0,SSW,3.5,-,N/A,,Clear,210,2014-04-02 03:15:00
11:35 PM,64.4,33.8,32,30.05,10.0,SSW,4.6,-,N/A,,Clear,200,2014-04-02 03:35:00
11:55 PM,68.0,33.8,28,30.05,10.0,SSW,4.6,-,N/A,,Clear,210,2014-04-02 03:55:00